Zurück zum Katalog

ONEWEB-0694

AktivKommunikationPO
NORAD 56722·PAYLOAD·🇬🇧 United Kingdom

Gestartet May 20, 2023 von Vandenberg Space Force Base

Loading…

Nächste Überflüge (nächste 24 Stunden)

TLE

AktuellSource: CelesTrak SupGP

Epoche: Sep 14, 2026, 21:28 UTC

1 56722C 23068N   26257.89458750 -.00001268  00000+0 -33219-2 0  2574
2 56722  87.9145 210.9528 0001775  91.0004 305.7887 13.16595294    13

Verfolge ONEWEB-0694 in Echtzeit mit AllMySat

Download on the App Store